Elkins, WV

1:49 AM EDT on July 22, 2017 (GMT -0400)
Elkins-Randolph County

Weather History for KEKN - May, 2013

Change the Weather History Date:

Friday, May 24, 2013

  Actual Average Record
Temperature  
Mean Temperature 46 °F 60 °F  
Max Temperature 58 °F 72 °F 85 °F (1927)
Min Temperature 34 °F 48 °F 31 °F (1963)
Degree Days  
Heating Degree Days 19 6  
Month to date heating degree days 164 201  
Since 1 July heating degree days 5722 5764  
Cooling Degree Days 0 1  
Month to date cooling degree days 12 11  
Year to date cooling degree days 15 14  
Moisture  
Dew Point 42 °F    
Average Humidity 73    
Maximum Humidity 93    
Minimum Humidity 53    
Precipitation  
Precipitation 0.23 in 0.18 in 1.44 in (1979)
Month to date precipitation 3.80 3.96  
Year to date precipitation 16.38 18.05  
Snow  
Snow 0.00 in - - ()
Month to date snowfall 0.0  
Since 1 September snowfall 77.5  
Snow Depth 0.00 in    
Sea Level Pressure  
Sea Level Pressure 30.08 in    
Wind  
Wind Speed 8 mph (NW)    
Max Wind Speed 18 mph    
Max Gust Speed 25 mph    
Visibility 7 miles    
Events Rain    
T = Trace of Precipitation, MM = Missing Value Source: NWS Daily Summary

Daily Weather History Graph

Daily Weather History Graph

Search for Another Location

Airport or City:

Trip Planner

Search our weather history database for the weather conditions in past years. The results will help you decide how hot, cold, wet, or windy it might be!

Date:

Astronomy

May. 24, 2013 Rise Set
Actual Time 5:59 AM EDT 8:33 PM EDT
Civil Twilight 5:29 AM EDT 9:03 PM EDT
Nautical Twilight 4:50 AM EDT 9:42 PM EDT
Astronomical Twilight 4:08 AM EDT 10:25 PM EDT
Moon 8:13 PM EDT (5/24) 5:30 AM EDT (5/24)
Length of Visible Light 15h 34m
Length of Day
14h 33m
Full, 100% of the Moon is Illuminated
May 24
Full
May 25
Full
May 31
Last Quarter
Jun 8
New
Jun 16
First Quarter

Hourly Weather History & Observations

Time (EDT) Temp. Windchill Dew Point Humidity Pressure Visibility Wind Dir Wind Speed Gust Speed Precip Events Conditions
12:06 AM 59.0 °F - 55.4 °F 88% 29.91 in 8.0 mi WNW 10.4 mph - 0.01 in Rain Light Rain
12:44 AM 57.2 °F - 53.6 °F 88% 29.91 in 9.0 mi Variable 3.5 mph - 0.03 in Rain Light Rain
12:51 AM 57.9 °F - 54.0 °F 87% 29.90 in 9.0 mi Calm Calm - 0.03 in Rain Light Rain
1:34 AM 57.2 °F - 53.6 °F 88% 29.91 in 10.0 mi West 3.5 mph - 0.00 in   Overcast
1:44 AM 57.2 °F - 53.6 °F 88% 29.90 in 10.0 mi West 4.6 mph - 0.00 in   Overcast
1:51 AM 57.9 °F - 54.0 °F 87% 29.88 in 10.0 mi Calm Calm - 0.00 in Rain Light Rain
2:13 AM 57.2 °F - 53.6 °F 88% 29.89 in 5.0 mi WSW 3.5 mph - 0.01 in Rain Light Rain
2:21 AM 57.2 °F - 53.6 °F 88% 29.89 in 2.5 mi WSW 4.6 mph - 0.03 in Rain Heavy Rain
2:30 AM 57.2 °F - 53.6 °F 88% 29.89 in 3.0 mi WNW 8.1 mph - 0.09 in Rain Rain
2:51 AM 55.9 °F - 53.1 °F 90% 29.88 in 10.0 mi West 6.9 mph - 0.10 in Rain Light Rain
3:02 AM 55.4 °F - 51.8 °F 88% 29.90 in 7.0 mi NW 12.7 mph 20.7 mph 0.01 in Rain Light Rain
3:12 AM 53.6 °F - 51.8 °F 94% 29.91 in 10.0 mi NW 17.3 mph 24.2 mph 0.01 in Rain Light Rain
3:25 AM 53.6 °F - 50.0 °F 88% 29.92 in 8.0 mi NW 11.5 mph 21.9 mph 0.01 in Rain Light Rain
3:42 AM 51.8 °F - 48.2 °F 88% 29.93 in 4.0 mi NNW 13.8 mph 20.7 mph 0.02 in Rain Light Rain
3:51 AM 50.0 °F - 48.0 °F 93% 29.93 in 5.0 mi NW 13.8 mph 20.7 mph 0.02 in Rain Light Rain
4:08 AM 48.2 °F - 46.4 °F 93% 29.95 in 3.0 mi NW 10.4 mph 19.6 mph 0.00 in Rain Light Rain
4:48 AM 46.4 °F 42.9 °F 44.6 °F 93% 29.98 in 3.0 mi North 6.9 mph - 0.01 in Rain Light Rain
4:51 AM 46.0 °F 43.1 °F 44.1 °F 93% 29.98 in 4.0 mi NNW 5.8 mph - 0.02 in Rain Light Rain
5:15 AM 44.6 °F 41.4 °F 42.8 °F 93% 30.00 in 3.0 mi NW 5.8 mph 16.1 mph 0.01 in Rain Light Rain
5:42 AM 44.6 °F 39.7 °F 41.0 °F 87% 30.01 in 5.0 mi NW 9.2 mph - 0.02 in Rain Rain
5:51 AM 44.1 °F 39.5 °F 41.0 °F 89% 30.02 in 5.0 mi NW 8.1 mph 17.3 mph 0.04 in Rain Light Rain
5:54 AM 44.6 °F 39.7 °F 41.0 °F 87% 30.02 in 4.0 mi NW 9.2 mph - 0.00 in Rain Light Rain
6:08 AM 44.6 °F 40.7 °F 41.0 °F 87% 30.02 in 6.0 mi WNW 6.9 mph - 0.00 in Rain Light Rain
6:51 AM 43.0 °F 37.7 °F 39.9 °F 89% 30.06 in 4.0 mi NW 9.2 mph 17.3 mph 0.00 in Rain Light Rain
7:01 AM 42.8 °F 38.0 °F 39.2 °F 87% 30.06 in 2.5 mi NW 8.1 mph - 0.01 in Rain Light Rain
7:09 AM 42.8 °F 37.5 °F 39.2 °F 87% 30.06 in 5.0 mi NW 9.2 mph - 0.01 in Rain Light Rain
7:51 AM 42.1 °F 35.7 °F 39.9 °F 92% 30.09 in 7.0 mi WNW 11.5 mph 17.3 mph 0.01 in Rain Light Rain
8:29 AM 42.8 °F 37.5 °F 39.2 °F 87% 30.08 in 4.0 mi NW 9.2 mph - 0.00 in Rain Light Rain
8:42 AM 42.8 °F 39.3 °F 39.2 °F 87% 30.09 in 5.0 mi Variable 5.8 mph - 0.00 in Rain Light Rain
8:51 AM 43.0 °F 38.2 °F 39.9 °F 89% 30.11 in 4.0 mi NNW 8.1 mph - 0.00 in Rain Light Rain
8:58 AM 42.8 °F 38.0 °F 39.2 °F 87% 30.09 in 4.0 mi NW 8.1 mph - 0.00 in Rain Light Rain
9:18 AM 42.8 °F 38.6 °F 39.2 °F 87% 30.10 in 5.0 mi NW 6.9 mph - 0.00 in Rain Light Rain
9:28 AM 42.8 °F 37.0 °F 39.2 °F 87% 30.10 in 3.0 mi NW 10.4 mph - 0.00 in Rain Light Rain
9:42 AM 42.8 °F 37.0 °F 39.2 °F 87% 30.11 in 2.5 mi NW 10.4 mph - 0.01 in Rain Light Rain
9:51 AM 42.1 °F 36.6 °F 39.9 °F 92% 30.14 in 2.5 mi WNW 9.2 mph - 0.01 in Rain Light Rain
10:10 AM 42.8 °F 36.6 °F 39.2 °F 87% 30.12 in 3.0 mi WNW 11.5 mph - 0.01 in Rain Light Rain
10:31 AM 42.8 °F 37.5 °F 39.2 °F 87% 30.13 in 6.0 mi NW 9.2 mph - 0.01 in Rain Light Rain
10:49 AM 42.8 °F 37.5 °F 39.2 °F 87% 30.14 in 4.0 mi NW 9.2 mph - 0.02 in Rain Light Rain
10:51 AM 42.1 °F 37.1 °F 39.0 °F 89% 30.16 in 4.0 mi NW 8.1 mph - 0.02 in Rain Light Rain
11:17 AM 42.8 °F 38.0 °F 39.2 °F 87% 30.15 in 4.0 mi NW 8.1 mph 18.4 mph 0.00 in Rain Light Rain
11:51 AM 42.1 °F 36.1 °F 39.0 °F 89% 30.18 in 7.0 mi NW 10.4 mph 20.7 mph 0.00 in Rain Light Rain
12:51 PM 42.1 °F 35.7 °F 39.0 °F 89% 30.21 in 4.0 mi WNW 11.5 mph 18.4 mph 0.00 in Rain Light Rain
12:58 PM 42.8 °F 36.2 °F 39.2 °F 87% 30.18 in 7.0 mi NW 12.7 mph 19.6 mph 0.01 in Rain Light Rain
1:21 PM 44.6 °F 39.2 °F 39.2 °F 81% 30.19 in 10.0 mi NW 10.4 mph - 0.01 in   Overcast
1:28 PM 46.4 °F 42.9 °F 39.2 °F 76% 30.19 in 10.0 mi NW 6.9 mph 17.3 mph 0.01 in   Overcast
1:51 PM 45.0 °F 40.6 °F 37.0 °F 74% 30.21 in 10.0 mi NNW 8.1 mph - 0.01 in   Overcast
2:28 PM 46.4 °F 41.9 °F 37.4 °F 71% 30.19 in 10.0 mi WNW 9.2 mph - N/A   Overcast
2:36 PM 46.4 °F 40.7 °F 35.6 °F 66% 30.19 in 10.0 mi WNW 12.7 mph 19.6 mph N/A   Overcast
2:51 PM 48.9 °F - 39.0 °F 69% 30.22 in 10.0 mi Variable 6.9 mph 20.7 mph N/A   Overcast
3:51 PM 48.0 °F - 35.1 °F 61% 30.22 in 10.0 mi NW 13.8 mph - N/A   Overcast
4:51 PM 48.9 °F - 34.0 °F 56% 30.23 in 10.0 mi WNW 15.0 mph 21.9 mph N/A   Overcast
5:51 PM 48.0 °F - 33.1 °F 56% 30.25 in 10.0 mi WNW 9.2 mph 20.7 mph N/A   Overcast
6:51 PM 48.0 °F - 32.0 °F 54% 30.26 in 10.0 mi WNW 12.7 mph 18.4 mph N/A   Mostly Cloudy
7:51 PM 46.0 °F 42.5 °F 30.9 °F 56% 30.27 in 10.0 mi NW 6.9 mph 16.1 mph N/A   Mostly Cloudy
8:51 PM 44.1 °F 41.5 °F 33.1 °F 65% 30.29 in 10.0 mi Variable 4.6 mph - N/A   Mostly Cloudy
9:51 PM 41.0 °F 38.0 °F 30.9 °F 67% 30.31 in 10.0 mi NNW 4.6 mph - N/A   Partly Cloudy
10:51 PM 37.0 °F - 32.0 °F 82% 30.32 in 9.0 mi Calm Calm - N/A   Clear
11:51 PM 35.1 °F - 32.0 °F 89% 30.34 in 7.0 mi Calm Calm - N/A   Clear